一网星座-0421星 (ONEWEB-0421 )

导读

ONEWEB-0421是英国OneWeb星座规划中的一颗低地球轨道通信卫星,于2021年12月27日发射入轨。该卫星所属的OneWeb星座旨在构建全球卫星通信网络,通过近地轨道卫星提供高速、低延迟的互联服务,覆盖航空海运、应急响应等领域,助力缩小全球数字鸿沟,为全球各地提供3G、LTE、5G及Wi-Fi连接支持。

基本信息
目录编号:
50496
目录名称:
ONEWEB-0421
国际标识:
2021-132AD
轨道中心:
EARTH
卫星名称:
一网星座-0421星
卫星全名:
一网星座-0421星 (ONEWEB-0421 )
卫星状态:
在轨 (已飞行1630 天)
发射日期:
2021-12-27 UTC
国别 :
英国 (GB)
星等 :
--
轨道信息
数据来源 国际轨道数据 AOE轨道数据
星历时间 2026-06-14T05:40:07+0800
14小时前
查看轨道信息
2026-06-12T07:00:00+0800
2天前
查看轨道信息
半长轴 7567.887km 7567.889km
偏心率 0.0001842 0.0001903
轨道倾角 87.916° 87.917°
近地点辐角 80.690° 82.322°
升交点赤经 336.110° 336.497°
平近点角 279.445° 51.904°
近地点 1188.355km 1188.311km
远地点 1191.145km 1191.193km
周期 109.200分钟 109.200分钟
每日圈数 13.186844 13.186839
详细信息
平衡模式:
三轴稳定
覆盖范围:
全球
运营商:
一网卫星公司
运营商所在国:
英国
制造商(研发单位):
一网卫星公司
制造商所在国:
英国
使用方式:
暂无
卫星简介
OneWeb卫星网络由648颗重约125公斤的微型卫星组成,运行在1200公里的轨道上。 每颗卫星都能够提供至少每秒8千兆位的吞吐量,以使用其高吞吐量的Ku频段有效载荷为家庭和移动平台提供互联网接入。该卫星仍在工作。
2D轨道图
3D轨道图
轨道高度分析图
轨道倾角分析图
轨道综合分析图
查看轨道综合分析图